| time (UTC) | temp F | wind direction | speed knots | gust knots | rain 1hr in | rain 24hr in | rain mn in | humidity % | barometer mb |
| 20260505074556 | 63 | 169 | 2.6 | 8.7 | 0.00 | 0.00 | 0.00 | 70 | 1011.4 |
| 20260505073056 | 63 | 200 | 0.0 | 4.3 | 0.00 | 0.00 | 0.00 | 69 | 1011.3 |
| 20260505071557 | 63 | 166 | 1.7 | 8.7 | 0.00 | 0.00 | 0.00 | 69 | 1011.2 |
| 20260505070055 | 63 | 185 | 1.7 | 7.0 | 0.00 | 0.00 | 0.00 | 68 | 1011.2 |
| 20260505064600 | 63 | 205 | 1.7 | 7.0 | 0.00 | 0.00 | 0.00 | 68 | 1011.2 |
| 20260505063055 | 63 | 170 | 1.7 | 5.2 | 0.00 | 0.00 | 0.00 | 68 | 1011.3 |
| 20260505061554 | 63 | 170 | 1.7 | 7.8 | 0.00 | 0.00 | 0.00 | 68 | 1011.2 |
| 20260505060058 | 63 | 171 | 0.9 | 7.8 | 0.00 | 0.00 | 0.00 | 68 | 1011.2 |
| 20260505054604 | 62 | 179 | 2.6 | 7.0 | 0.00 | 0.00 | 0.00 | 68 | 1011.2 |
| 20260505053110 | 62 | 232 | 1.7 | 5.2 | 0.00 | 0.00 | 0.00 | 70 | 1011.3 |
| 20260505051558 | 61 | 139 | 0.0 | 1.7 | 0.00 | 0.00 | 0.00 | 70 | 1011.4 |
| 20260505041615 | 61 | 173 | 0.0 | 3.5 | 0.00 | 0.00 | 0.00 | 67 | 1011.4 |
| 20260505040056 | 62 | 125 | 0.9 | 4.3 | 0.00 | 0.00 | 0.00 | 65 | 1011.5 |
| 20260505034604 | 62 | 143 | 1.7 | 8.7 | 0.00 | 0.00 | 0.00 | 64 | 1011.3 |
| 20260505033059 | 61 | 165 | 0.9 | 3.5 | 0.00 | 0.00 | 0.00 | 65 | 1011.2 |
| 20260505031606 | 61 | 0 | 0.0 | 2.6 | 0.00 | 0.00 | 0.00 | 64 | 1011.3 |
| 20260505030058 | 61 | 148 | 0.9 | 5.2 | 0.00 | 0.00 | 0.00 | 62 | 1011.2 |
| 20260505024555 | 61 | 0 | 0.0 | 3.5 | 0.00 | 0.00 | 0.00 | 61 | 1011.4 |
| 20260505023101 | 61 | 163 | 0.0 | 3.5 | 0.00 | 0.00 | 0.00 | 61 | 1011.5 |
| 20260505021558 | 61 | 177 | 0.0 | 1.7 | 0.00 | 0.00 | 0.00 | 60 | 1011.5 |
| 20260505020053 | 62 | 0 | 0.0 | 1.7 | 0.00 | 0.00 | 0.00 | 57 | 1011.5 |
| 20260505014553 | 62 | 0 | 0.0 | 1.7 | 0.00 | 0.00 | 0.00 | 55 | 1011.4 |
| 20260505013059 | 63 | 170 | 0.0 | 3.5 | 0.00 | 0.00 | 0.00 | 53 | 1011.3 |
| 20260505011557 | 63 | 0 | 0.0 | 1.7 | 0.00 | 0.00 | 0.00 | 53 | 1011.1 |
| 20260505004552 | 65 | 0 | 0.0 | 3.5 | 0.00 | 0.00 | 0.00 | 51 | 1011.0 |
| 20260505003059 | 66 | 0 | 0.0 | 1.7 | 0.00 | 0.00 | 0.00 | 49 | 1010.9 |
| 20260505001558 | 68 | 170 | 0.9 | 7.0 | 0.00 | 0.00 | 0.00 | 45 | 1010.9 |
| 20260505000108 | 69 | 160 | 1.7 | 9.6 | 0.00 | 0.00 | 0.00 | 44 | 1010.9 |
| 20260504234619 | 70 | 189 | 0.9 | 9.6 | 0.00 | 0.00 | 0.00 | 43 | 1010.9 |
| 20260504233054 | 71 | 185 | 1.7 | 7.8 | 0.00 | 0.00 | 0.00 | 42 | 1010.7 |
| 20260504231604 | 71 | 183 | 1.7 | 7.0 | 0.00 | 0.00 | 0.00 | 41 | 1010.8 |
| 20260504230058 | 72 | 0 | 0.9 | 8.7 | 0.00 | 0.00 | 0.00 | 41 | 1010.6 |
| 20260504224555 | 72 | 174 | 0.9 | 9.6 | 0.00 | 0.00 | 0.00 | 39 | 1010.6 |
| 20260504223054 | 73 | 187 | 4.3 | 10.4 | 0.00 | 0.00 | 0.00 | 37 | 1010.6 |
| 20260504221602 | 73 | 120 | 3.5 | 8.7 | 0.00 | 0.00 | 0.00 | 38 | 1010.7 |
| 20260504220058 | 73 | 161 | 2.6 | 7.8 | 0.00 | 0.00 | 0.00 | 41 | 1010.8 |
| 20260504214555 | 73 | 214 | 2.6 | 13.0 | 0.00 | 0.00 | 0.00 | 40 | 1010.9 |
| 20260504213051 | 72 | 243 | 2.6 | 14.8 | 0.00 | 0.00 | 0.00 | 40 | 1011.1 |
| 20260504211558 | 73 | 168 | 3.5 | 11.3 | 0.00 | 0.00 | 0.00 | 38 | 1011.0 |
| 20260504210109 | 73 | 176 | 3.5 | 8.7 | 0.00 | 0.00 | 0.00 | 38 | 1011.0 |
| 20260504204602 | 73 | 193 | 4.3 | 10.4 | 0.00 | 0.00 | 0.00 | 38 | 1010.9 |
| 20260504203058 | 73 | 175 | 3.5 | 10.4 | 0.00 | 0.00 | 0.00 | 38 | 1010.9 |
| 20260504201556 | 72 | 132 | 4.3 | 11.3 | 0.00 | 0.00 | 0.00 | 38 | 1011.3 |
| 20260504200100 | 72 | 220 | 3.5 | 12.2 | 0.00 | 0.00 | 0.00 | 38 | 1011.5 |
| 20260504194608 | 72 | 145 | 3.5 | 7.8 | 0.00 | 0.00 | 0.00 | 38 | 1011.7 |
| 20260504193055 | 72 | 181 | 2.6 | 8.7 | 0.00 | 0.00 | 0.00 | 37 | 1012.0 |
| 20260504191554 | 72 | 166 | 3.5 | 13.0 | 0.00 | 0.00 | 0.00 | 38 | 1012.2 |
| 20260504190117 | 72 | 236 | 2.6 | 9.6 | 0.00 | 0.00 | 0.00 | 39 | 1012.2 |
| 20260504184558 | 72 | 216 | 1.7 | 10.4 | 0.00 | 0.00 | 0.00 | 40 | 1012.5 |
| 20260504183056 | 71 | 154 | 4.3 | 8.7 | 0.00 | 0.00 | 0.00 | 39 | 1012.6 |
| 20260504181558 | 71 | 241 | 2.6 | 11.3 | 0.00 | 0.00 | 0.00 | 38 | 1012.9 |
| 20260504180144 | 71 | 174 | 1.7 | 7.8 | 0.00 | 0.00 | 0.00 | 38 | 1012.9 |
| 20260504174556 | 70 | 168 | 3.5 | 8.7 | 0.00 | 0.00 | 0.00 | 36 | 1013.2 |
| 20260504173113 | 70 | 129 | 5.2 | 16.5 | 0.00 | 0.00 | 0.00 | 37 | 1013.4 |
| 20260504171556 | 69 | 258 | 1.7 | 13.9 | 0.00 | 0.00 | 0.00 | 39 | 1013.6 |
| 20260504140109 | 61 | 179 | 3.5 | 9.6 | 0.00 | 0.00 | 0.00 | 55 | 1014.9 |
| 20260504120112 | 54 | 181 | 3.5 | 11.3 | 0.00 | 0.00 | 0.00 | 76 | 1015.5 |
| 20260504081555 | 47 | 0 | 0.0 | 4.3 | 0.00 | 0.00 | 0.00 | 76 | 1016.0 |